This is the latest recevied weather packets stored in our database for station/object N2XP-2. If no packets are shown the sender has not sent any weather packets the latest 10 day(s).
| Time | Temp. | Humidity | Pressure | Rain* | Wind** | Luminosity | Snow |
|---|---|---|---|---|---|---|---|
| 1778082653 | 21.67° C | 69% | 1010 hPa | 0 mm | 1.34 m/s, 159° | - | - |
| 1778082393 | 22.22° C | 68% | 1010.1 hPa | 0 mm | 1.79 m/s, 235° | - | - |
| 1778082353 | 22.22° C | 68% | 1010.1 hPa | 0 mm | 0.89 m/s, 132° | - | - |
| 1778082050 | 22.22° C | 68% | 1010.1 hPa | 0 mm | 1.34 m/s, 203° | - | - |
| 1778081751 | 22.22° C | 67% | 1010 hPa | 0 mm | 0.45 m/s, 70° | - | - |
| 1778081452 | 22.22° C | 67% | 1009.9 hPa | 0 mm | 0.89 m/s, 177° | - | - |
| 1778081373 | 21.67° C | 68% | 1010 hPa | 0 mm | 1.34 m/s, 203° | - | - |
| 1778081148 | 22.22° C | 68% | 1010.1 hPa | 0 mm | 1.79 m/s, 235° | - | - |
| 1778081055 | 21.67° C | 68% | 1010.1 hPa | 0 mm | 1.79 m/s, 160° | - | - |
| 1778080849 | 21.67° C | 68% | 1010 hPa | 0 mm | 1.34 m/s, 203° | - | - |
| 1778080736 | 21.67° C | 67% | 1010.2 hPa | 0 mm | 1.79 m/s, 233° | - | - |
| 1778080550 | 21.67° C | 68% | 1010.1 hPa | 0 mm | 1.79 m/s, 160° | - | - |
| 1778080476 | 22.22° C | 66% | 1010.1 hPa | 0 mm | 1.34 m/s, 256° | - | - |
| 1778080460 | 22.78° C | 66% | 1010.1 hPa | 0 mm | 1.34 m/s, 256° | - | - |
| 1778080300 | 21.67° C | 67% | 1010.2 hPa | 0 mm | 1.79 m/s, 233° | - | - |
| 1778080247 | 21.67° C | 67% | 1010.2 hPa | 0 mm | 1.79 m/s, 233° | - | - |
| 1778079993 | 22.22° C | 66% | 1010.2 hPa | 0 mm | 2.24 m/s, 135° | - | - |
| 1778079948 | 22.22° C | 67% | 1010.2 hPa | 0 mm | 0.89 m/s, 65° | - | - |
| 1778079728 | 22.22° C | 66% | 1010.1 hPa | 0 mm | 1.34 m/s, 256° | - | - |
| 1778079649 | 22.22° C | 66% | 1010.2 hPa | 0 mm | 2.24 m/s, 135° | - | - |
| 1778079384 | 22.78° C | 66% | 1010.1 hPa | 0 mm | 1.79 m/s, 218° | - | - |
| 1778079346 | 22.22° C | 66% | 1010.1 hPa | 0 mm | 1.34 m/s, 256° | - | - |
| 1778079178 | 22.78° C | 66% | 1010.1 hPa | 0 mm | 1.34 m/s, 256° | - | - |
| 1778079047 | 22.78° C | 66% | 1010.1 hPa | 0 mm | 1.79 m/s, 218° | - | - |
| 1778078748 | 22.78° C | 66% | 1010.1 hPa | 0 mm | 1.34 m/s, 256° | - | - |
* Rain latest hour (hover to see other rain measurements)
** Current wind speed in m/s (hover to see current wind gust speed)